Location: *
(48.8800°N, 6.8431°E)
Time: 20:22:50
(UTC+00:00)

Daily predictions for brighter satellites

Satellite Brightness Start Highest point End
(mag) Time Altitude Azimuth Time Altitude Azimuth Time Altitude Azimuth
Tsikada Rocket 4.1 16:01:25 10° S 16:07:50 80° E 16:14:15 10° N
ASTEX 1 4.2 16:05:35 10° N 16:10:26 54° WNW 16:15:13 10° SSW
Cosmos 1340 3.2 16:07:18 10° N 16:10:51 37° ENE 16:14:23 10° SE
Cosmos 1782 3.3 16:09:27 10° SSE 16:13:12 39° E 16:16:57 10° NNE
YAOGAN 1 4.5 16:13:54 10° ENE 16:14:54 11° NE 16:15:55 10° NE
Cosmos 1315 Rocket 3.7 16:12:00 10° SSE 16:15:29 30° E 16:19:02 10° NNE
H-2A R/B 4.4 16:13:14 10° NNW 16:16:09 19° WNW 16:19:02 10° WSW
NOSS 3 (A) 4.5 16:17:58 10° SSW 16:20:38 68° SE 16:23:43 10° NE
NOSS 3-4 (A) 3.9 16:15:09 10° SSW 16:20:51 47° ESE 16:26:53 10° NE
NOSS 3-4 (C) 3.9 16:15:16 10° SSW 16:20:57 46° ESE 16:26:59 10° NE
Cosmos 1346 Rocket 3.0 16:18:05 10° N 16:21:55 47° ENE 16:25:46 10° SSE
USA 267 3.9 16:16:16 10° SE 16:22:44 61° SW 16:29:12 10° WNW
BREEZE-M DEB (TANK) 2.9 16:15:13 10° W 16:24:12 87° N 16:27:12 10° E
SJ-7 4.4 16:20:05 10° SSE 16:24:17 80° ENE 16:28:29 10° N
ATLAS 3B R/B 2.7 16:18:02 10° NW 16:24:46 80° NE 16:31:39 10° SE
Cosmos 371 Rocket 3.3 16:22:01 10° NNW 16:26:57 89° E 16:31:50 10° SSE
CZ-4B R/B 3.7 16:22:27 10° S 16:27:43 64° WSW 16:33:05 10° NNW
Cosmos 1400 Rocket 3.1 16:24:38 10° SSW 16:28:45 77° WNW 16:32:51 10° N
Cosmos 1733 Rocket 3.9 16:25:18 10° NNE 16:29:03 27° ENE 16:32:49 10° SE
Cosmos 2322 4.0 16:24:20 10° S 16:29:50 52° ESE 16:35:22 10° NE
Cosmos 1869 Rocket 3.6 16:29:40 10° N 16:34:06 87° ENE 16:38:32 10° S
NOSS 2-2 (C) 3.8 16:30:44 10° WSW 16:34:21 55° NW 16:38:36 10° NE
CZ-4B R/B 3.2 16:31:17 10° N 16:34:28 33° WNW 16:37:38 10° SW
Cosmos 1269 Rocket 4.2 16:29:40 10° S 16:34:51 57° ESE 16:40:03 10° NNE
YAOGAN 6 3.9 16:35:39 10° ESE 16:38:08 18° ENE 16:40:39 10° NNE
Cosmos 1606 4.0 16:36:35 10° SSW 16:40:10 41° WNW 16:43:47 10° N
Cosmos 2278 Rocket 2.7 16:35:17 10° NNW 16:40:31 36° NE 16:45:43 10° ESE
Meteor 1-11 Rocket 4.2 16:35:10 10° N 16:40:48 41° ENE 16:46:24 10° SE
ISS -3.5 16:37:37 10° WNW 16:40:56 55° N 16:43:34 15° E
IRS-1C Rocket 4.1 16:35:55 10° SSE 16:41:11 79° ENE 16:46:29 10° NNW
Cosmos 494 Rocket 4.0 16:36:10 10° SSW 16:41:25 76° ESE 16:46:42 10° NNE
RESURS DK-1 3.8 16:38:32 10° SSE 16:41:36 21° ESE 16:43:38 15° ENE
Cosmos 1689 Rocket 3.5 16:38:48 10° N 16:41:41 38° WNW 16:44:32 10° SW
COBE Rocket 4.1 16:40:09 10° NNE 16:44:38 46° E 16:49:06 10° S
Okean O Rocket 3.2 16:43:39 10° SSW 16:47:43 39° W 16:51:49 10° NNW
Cosmos 2360 Rocket 2.4 16:45:20 10° SW 16:50:59 72° WNW 16:56:42 10° NNE
Meteor 1-27 Rocket 4.4 16:46:03 10° SSE 16:51:02 32° E 16:56:07 10° NNE
ATLAS 5 CENTAUR R/B 3.1 16:50:36 10° SSE 16:51:17 11° SE 16:51:26 11° SE
PSLV R/B 4.0 16:48:53 10° NNE 16:53:06 89° WNW 16:57:15 10° SSW
Cosmos 2333 Rocket 2.5 16:49:23 10° S 16:54:52 49° ESE 16:59:52 13° NE
Cosmos 2228 Rocket 4.4 16:50:57 10° SW 16:55:17 42° WNW 16:59:39 10° N
Cosmos 2369 Rocket 4.1 16:54:59 10° NNE 16:55:57 10° NNE 16:56:52 10° NNE
Okean-O 2.7 16:52:09 10° SSE 16:56:29 56° ENE 17:00:50 10° N
Cosmos 1302 Rocket 4.0 16:52:38 10° NNW 16:57:58 84° ENE 17:03:13 10° SSE
Cosmos 1980 Rocket 4.4 16:54:43 10° WNW 16:58:16 17° NW 17:01:50 10° N
AQUARIUS 4.1 16:53:53 10° SSE 16:58:22 89° E 17:02:55 10° NNW
ATLAS 2AS CENTAUR R/B 3.2 16:50:30 10° SW 16:58:32 84° NW 17:06:03 12° NE
Cosmos 2251 Rocket 4.4 16:54:04 10° SSE 16:58:32 28° E 17:01:20 18° NE
BREEZE-M R/B 3.0 16:53:20 10° WSW 16:59:38 85° SSE 17:01:47 23° E
Feng Yun 1-1 Rocket 4.3 16:54:17 10° SSE 16:59:42 82° WSW 17:05:07 10° NNW
Cosmos 2279 Rocket 4.1 16:56:31 10° N 17:02:48 85° W 17:09:04 10° S
Cosmos 1862 Rocket 4.0 17:01:14 10° SSE 17:05:14 38° E 17:08:38 14° NNE
CZ-4 R/B 1.9 17:06:21 10° SE 17:09:56 34° ENE 17:13:29 10° N
Cosmos 2237 Rocket 3.2 17:05:19 10° SSE 17:09:56 26° ESE 17:11:43 22° ENE
Exosat Rocket 4.0 17:06:34 10° S 17:11:41 41° ESE 17:14:31 21° NE
Cosmos 1536 3.2 17:09:00 10° N 17:12:49 39° ENE 17:16:35 10° SE
Cosmos 1812 3.0 17:09:38 10° SSE 17:13:19 44° E 17:15:32 21° NNE
Cosmos 2322 Rocket 3.7 17:09:32 10° WSW 17:14:28 30° NW 17:19:27 10° NNE
SeaSat 1 3.6 17:17:12 23° NE 17:17:41 23° NE 17:21:31 10° N
SL-16 R/B 4.0 17:14:27 10° W 17:19:11 26° NW 17:23:55 10° NNE
Cosmos 1707 Rocket 3.9 17:17:09 10° SSW 17:21:34 67° W 17:26:04 10° N
CZ-4 R/B 4.5 17:20:35 10° SSE 17:24:39 55° ENE 17:28:44 10° N
Nadezhda 4 Rocket 4.0 17:19:16 10° S 17:25:30 64° E 17:31:45 10° NNE
Envisat 3.0 17:24:22 10° SSE 17:29:27 85° WSW 17:34:35 10° NNW
Cosmos 2219 Rocket 2.1 17:24:20 10° SSW 17:29:56 85° ESE 17:34:06 19° NNE
USA 215 3.7 17:25:50 22° NE 17:30:01 52° NNW 17:36:18 10° W
SMAP 4.4 17:26:54 10° S 17:31:19 42° W 17:35:45 10° NNW
Lacrosse 5 rocket 2.2 17:27:41 10° SSW 17:31:29 32° SE 17:31:54 31° ESE
COSMOS 2455 4.3 17:26:43 10° W 17:32:00 31° NW 17:36:51 12° NNE
STARLINK-67 2.5 17:29:44 10° WSW 17:32:26 79° NW 17:32:26 79° NW
ERBS 3.8 17:33:07 10° WNW 17:36:13 35° SW 17:38:52 13° SSE
CENTAUR R/B 4.5 17:29:48 10° NW 17:37:14 42° WSW 17:45:10 10° S
COSMO-SKYMED 1 2.5 17:35:38 29° NNE 17:37:45 61° E 17:42:03 10° S
Cosmos 1908 Rocket 3.6 17:33:55 10° N 17:38:17 53° ENE 17:42:34 10° SSE
Cosmos 2297 4.3 17:33:11 10° NNW 17:38:24 34° NE 17:38:58 33° ENE
Cosmos 1980 4.0 17:34:08 10° S 17:39:28 45° ESE 17:41:05 36° ENE
Cosmos 1500 3.5 17:37:16 10° NNW 17:41:01 65° W 17:44:44 10° S
SL-4 R/B 2.0 17:38:33 10° SW 17:42:18 62° SSE 17:42:51 55° ESE
STARLINK-46 4.4 17:43:29 10° SW 17:44:58 25° SSW 17:44:58 25° SSW
Cosmos 1992 Rocket 3.9 17:41:03 10° NNW 17:46:18 85° ENE 17:51:32 10° SSE
Shenzhou-11 Module 4.1 17:44:14 10° SW 17:45:40 18° S 17:45:40 18° S
COSMOS 2428 2.8 17:41:35 10° SSW 17:47:15 76° WNW 17:51:04 22° NNE
Cosmos 2026 Rocket 4.2 17:43:03 10° SSE 17:48:44 44° E 17:50:36 34° NE
YAOGAN 1 2.4 17:45:55 10° SSE 17:50:13 74° ENE 17:54:34 10° N
Cosmos 292 Rocket 3.8 17:49:09 10° NNW 17:53:59 58° ENE 17:54:26 55° E
Cosmos 1943 Rocket 3.8 17:50:24 10° N 17:53:09 19° NNE 17:53:09 19° NNE
FengYun 1-2 T 4.4 17:49:21 10° S 17:54:49 72° WSW 18:00:21 10° NNW
CSL-04 Rocket 3.5 17:50:56 10° SSE 17:56:12 82° ENE 18:01:31 10° NNW
USA 116 4.3 17:58:59 33° NNE 18:01:26 71° ESE 18:06:42 10° S
CSL-04 Debris 4.2 18:00:20 10° SSE 18:05:49 84° WSW 18:11:19 10° NNW
Cosmos 1627 Rocket 4.3 18:01:29 10° S 18:07:30 64° E 18:10:30 31° NNE
YAOGAN 6 4.0 18:08:07 10° SSW 18:11:24 36° W 18:14:44 10° NNW
NOSS 3-4 (A) 4.2 18:05:54 10° WSW 18:11:46 47° NW 18:14:46 28° NNE
NOSS 3-4 (C) 4.2 18:06:00 10° WSW 18:11:52 48° NW 18:14:52 29° NNE
Ariane Rocket 4.0 18:14:42 32° N 18:14:42 32° N 18:17:29 10° N
BREEZE-M DEB (TANK) 3.2 18:12:45 10° W 18:15:46 40° SW 18:15:46 40° SW
ISS -2.0 18:14:25 10° WNW 18:16:28 32° W 18:16:28 32° W
RESURS DK-1 3.1 18:15:21 10° SW 18:19:20 47° NW 18:19:34 46° NW
NOAA 11 4.2 18:17:40 10° SSE 18:23:07 81° WSW 18:28:38 10° NNW
Cosmos 2195 Rocket 4.4 18:18:18 10° S 18:24:30 90° W 18:29:39 16° N
Cosmos 2278 Rocket 3.2 18:19:21 10° NW 18:24:44 45° WSW 18:30:05 10° S
Cosmos 1092 Rocket 4.1 18:21:37 10° SSW 18:27:56 73° W 18:34:15 10° N
Cosmos 2360 Rocket 4.4 18:32:10 10° W 18:36:03 18° NW 18:39:13 12° N
SL-16 R/B 3.9 18:33:51 10° S 18:35:33 20° S 18:35:33 20° S
Cosmos 2333 Rocket 3.6 18:34:06 10° WSW 18:39:21 35° NW 18:41:54 24° N
Cosmos 2251 Rocket 4.3 18:35:26 10° SW 18:40:34 48° WNW 18:41:51 40° NNW
Cosmos 2369 Rocket 4.0 18:36:50 10° NNW 18:38:40 19° N 18:38:40 19° N
CZ-4 R/B 3.7 18:41:53 10° SSW 18:45:02 23° W 18:48:11 10° NW
NOSS 0 Rocket 4.4 18:41:08 10° SW 18:47:15 59° NW 18:48:39 48° N
ATLAS 2AS CENTAUR R/B 4.1 18:43:19 10° W 18:50:37 36° NNW 18:53:29 28° NNE
Cosmos 2237 Rocket 2.6 18:47:58 10° SW 18:53:36 59° WNW 18:53:36 59° WNW
SeaSat 1 3.8 18:57:00 33° NW 18:57:00 33° NW 18:59:43 10° NNW
Lacrosse 5 rocket 4.0 19:06:25 10° WSW 19:07:34 18° WSW 19:07:34 18° WSW
Cosmos 1553 Rocket 4.4 19:05:04 10° NNW 19:10:24 58° NW 19:10:24 58° NW
USA 215 4.0 19:13:11 43° NNW 19:13:11 43° NNW 19:18:31 10° WNW
Cosmos 2219 Rocket 4.1 19:10:16 10° W 19:14:38 23° NW 19:15:50 21° NNW
Cosmos 1943 Rocket 4.5 19:33:33 10° NNW 19:34:41 16° NNW 19:34:41 16° NNW
